Location: *
(18.5200°S, 46.4500°E)
Time: 01:42:30
(UTC+00:00)

OAO 3 Rocket - Pass Details

Date: 19 July 2019
Orbit: 629 x 683 km, 35.0° (Epoch: 21 August)

Event Time Altitude Azimuth Distance (km) Brightness Sun altitude
Rises 15:14:59 0° 321° (NW) 2,952 7.6 -9.7°
Reaches altitude 10° 15:17:30 10° 329° (NNW) 2,037 6.5 -10.3°
Maximum altitude 15:21:52 36° 36° (NE) 1,005 4.0 -11.3°
Enters shadow 15:25:04 16° 96° (E) 1,647 4.6 -12.0°
